[[{"header":{"parameterUnit":"m.s-1","parameterCategory":1,"la1":30.2991,"la2":30.254,"lo1":-89.0895,"lo2":-89.0444,"dy":0.0017,"dx":0.0017,"nx":28,"ny":28,"refTime":"2024-07-06T09:00:00:Z","depth":0,"parameterNumber":2,"parameterNumberName":"U-component_of_WINDS"},"data":[0,0,0,0,0,0,0,0,0,0,0,0,0,0,0,0,0,0,0,0,0,0,0,0,0,0,0,0,0,0,0,0,0,0,0,0,0,0,0,0,0,0,0,0,0,0,0,0,0,0,0,0,0,0,0,0,0,0,1.7068,1.7069,0,1.7187,1.7189,1.719,1.7263,1.7263,1.7264,1.7264,1.7387,1.739,1.7393,0,0,0,0,0,0,0,0,0,0,0,0,0,1.6905,1.6908,1.7068,1.7069,1.7071,1.7187,1.7189,1.719,1.7263,1.7263,1.7264,1.7264,1.7386,1.739,1.7393,0,0,0,0,0,0,0,0,0,0,0,0,0,1.6995,1.6908,1.7068,1.7121,1.7127,1.7187,1.7189,1.7191,1.7263,1.7263,1.7264,1.7264,1.7385,1.7389,1.7394,1.741,0,0,1.7407,1.7409,0,0,0,0,0,0,0,0,1.699,1.7001,1.7112,1.7117,1.7124,1.7211,1.7177,1.7264,1.7263,1.7211,1.7264,1.7265,1.7328,1.7337,1.7358,1.7416,1.7421,1.7408,1.741,1.7412,1.7413,0,0,0,0,0,0,0,1.6984,1.6996,1.7115,1.7113,1.7121,1.714,1.7153,1.7194,1.7265,1.7216,1.7221,1.7234,1.7332,1.7354,1.7362,1.7423,1.7407,1.7411,1.7414,1.7416,1.7502,1.7502,0,0,0,0,0,0,1.6969,1.6991,1.7111,1.7119,1.7057,1.7142,1.7157,1.7182,1.7265,1.7278,1.7234,1.7237,1.7346,1.7357,1.7366,1.7393,1.7412,1.7416,1.7419,1.7503,1.7502,1.7502,0,0,0,0,0,0,1.6965,1.6979,1.7107,1.7056,1.7074,1.7144,1.7172,1.7184,1.7207,1.7279,1.7292,1.7243,1.7347,1.736,1.7399,1.7398,1.7418,1.7422,1.7503,1.7502,1.7502,1.7443,0,0,0,0,0,0,1.696,1.6977,1.6983,1.7056,1.7076,1.7136,1.7172,1.7186,1.7214,1.722,1.7291,1.7303,1.7349,1.7392,1.7403,1.7404,1.7426,1.7503,1.7503,1.7502,1.7446,1.7441,1.7437,0,0,0,0,0,1.6954,1.6961,1.6983,1.6997,1.7085,1.7136,1.7148,1.7199,1.7214,1.7221,1.7268,1.7301,1.7396,1.7395,1.7409,1.7411,1.7504,1.7503,1.7502,1.7448,1.7442,1.7437,0,0,0,0,0,0,1.6886,1.6972,1.6997,1.7028,1.7074,1.7148,1.7159,1.7191,1.7234,1.7238,1.73,1.7316,1.7349,1.7384,1.7382,1.7432,1.7454,1.7456,1.7408,1.7403,1.7398,1.7389,1.7429,0,0,0,0,0,1.6875,1.6908,1.6982,1.7002,1.7024,1.7087,1.7111,1.7147,1.7197,1.7217,1.7267,1.7315,1.7356,1.7381,1.7423,1.7451,1.7469,1.746,1.7455,1.7451,1.7452,1.7472,1.7469,1.7499,1.7499,1.7499,0,0,1.6852,1.6903,1.692,1.699,1.703,1.7064,1.7103,1.7137,1.7163,1.7223,1.7263,1.73,1.7359,1.7393,1.741,1.7423,1.7448,1.745,1.7446,1.745,1.7471,1.7468,1.7465,1.7499,1.7499,1.7499,0,0,1.6828,1.6869,1.6892,1.6931,1.6992,1.7034,1.7039,1.7109,1.7137,1.7178,1.7224,1.7256,1.7325,1.7365,1.7394,1.7388,1.7421,1.7399,1.7376,1.7394,1.7392,1.739,1.7389,1.7388,1.74,1.74,1.74,0,1.6791,1.6844,1.6899,1.6931,1.6961,1.7017,1.7041,1.7077,1.7148,1.7168,1.7181,1.727,1.7313,1.7358,1.7357,1.7378,1.7387,1.7391,1.7388,1.7387,1.7386,1.7385,1.7385,1.7397,1.7397,1.7398,1.7398,0,1.6797,1.6833,1.6844,1.6912,1.6943,1.6971,1.7031,1.7057,1.709,1.7132,1.7174,1.7228,1.7282,1.7295,1.7328,1.7346,1.7352,1.7376,1.7399,1.7379,1.738,1.738,1.7393,1.7394,1.7395,1.7396,0,0,1.6732,1.6831,1.6835,1.6867,1.6938,1.6968,1.6999,1.7052,1.7073,1.7121,1.7149,1.7207,1.723,1.7263,1.7302,1.7318,1.7311,1.734,1.7342,1.7333,1.7336,1.7318,1.7316,1.7333,1.7334,1.7334,1.7331,0,1.6719,1.6777,1.6829,1.6868,1.6903,1.6958,1.6986,1.7033,1.7073,1.7109,1.7154,1.7194,1.7221,1.7241,1.726,1.7308,1.7312,1.7309,1.7362,1.7363,1.7345,1.7317,1.7297,1.7292,1.7332,1.7332,1.7332,0,1.6711,1.6757,1.68,1.687,1.6887,1.691,1.6964,1.6998,1.7054,1.7082,1.712,1.716,1.7197,1.7217,1.7269,1.7266,1.7291,1.7318,1.7319,1.7326,1.7346,1.7324,1.7292,1.7291,1.7333,1.7332,1.7332,0,1.666,1.6733,1.6769,1.6794,1.6877,1.6892,1.6928,1.6984,1.7013,1.7061,1.7081,1.7132,1.716,1.7199,1.7253,1.7262,1.7301,1.7324,1.7326,1.7325,1.7332,1.7331,1.7304,1.7347,1.7347,1.7347,1.7347,0,1.664,1.6665,1.6747,1.6769,1.6799,1.6859,1.6887,1.6927,1.6977,1.7009,1.706,1.7088,1.7158,1.7195,1.7238,1.7276,1.7288,1.7313,1.7324,1.7308,1.7305,1.7325,1.7327,1.7347,1.7347,1.7347,1.7347,0,1.6589,1.6645,1.6688,1.6763,1.6782,1.6801,1.6866,1.689,1.6933,1.6973,1.6986,1.7054,1.7101,1.7159,1.7224,1.7253,1.7287,1.7304,1.7268,1.7275,1.7274,1.7273,1.7259,1.7261,1.7302,1.7301,1.7301,0,1.6572,1.6592,1.667,1.6695,1.6729,1.6768,1.6799,1.6859,1.6889,1.6956,1.6972,1.7023,1.7067,1.714,1.7196,1.7247,1.7266,1.7257,1.7273,1.7258,1.7267,1.7265,1.7268,1.7253,1.7252,1.7251,1.7251,0,1.6537,1.6565,1.6607,1.6659,1.6694,1.6738,1.6785,1.6802,1.6873,1.6904,1.6953,1.6987,1.7055,1.7105,1.7164,1.7201,1.7238,1.7246,1.7249,1.7233,1.7212,1.7225,1.7257,1.7245,1.7246,1.7246,1.7247,1.7247,1.6504,1.6525,1.6583,1.6629,1.6671,1.6713,1.674,1.6788,1.6829,1.6889,1.6922,1.6971,1.7029,1.7111,1.7147,1.7187,1.72,1.7204,1.7206,1.7206,1.7202,1.7206,1.7198,1.7198,1.7198,1.7198,1.7198,0,1.6472,1.6513,1.6555,1.6618,1.6655,1.6687,1.674,1.6769,1.681,1.6861,1.6904,1.6961,1.7011,1.7071,1.7126,1.7146,1.7164,1.7158,1.7157,1.7166,1.7186,1.7178,1.7142,1.7142,1.7142,1.7142,1.7142,1.7142,1.646,1.6498,1.6533,1.6593,1.6634,1.6682,1.671,1.675,1.6791,1.6852,1.6894,1.6933,1.6989,1.7048,1.7096,1.7112,1.713,1.7119,1.7141,1.7159,1.7164,1.7168,1.7161,1.7122,1.7122,1.7117,1.7117,1.7117]},{"header":{"parameterUnit":"m.s-1","parameterCategory":1,"la1":30.2991,"la2":30.254,"lo1":-89.0895,"lo2":-89.0444,"dy":0.0017,"dx":0.0017,"nx":28,"ny":28,"refTime":"2024-07-06T09:00:00:Z","depth":0,"parameterNumber":3,"parameterNumberName":"V-component_of_WINDS"},"data":[0,0,0,0,0,0,0,0,0,0,0,0,0,0,0,0,0,0,0,0,0,0,0,0,0,0,0,0,0,0,0,0,0,0,0,0,0,0,0,0,0,0,0,0,0,0,0,0,0,0,0,0,0,0,0,0,0,0,0.6759,0.676,0,0.6841,0.6842,0.6843,0.6895,0.6895,0.6895,0.6896,0.6978,0.698,0.6982,0,0,0,0,0,0,0,0,0,0,0,0,0,0.6641,0.6643,0.6759,0.676,0.6761,0.6841,0.6842,0.6844,0.6895,0.6895,0.6895,0.6896,0.6978,0.698,0.6982,0,0,0,0,0,0,0,0,0,0,0,0,0,0.6705,0.6644,0.6758,0.6796,0.68,0.6841,0.6842,0.6844,0.6895,0.6895,0.6896,0.6896,0.6977,0.698,0.6983,0.6992,0,0,0.6992,0.6993,0,0,0,0,0,0,0,0,0.6701,0.6709,0.6789,0.6794,0.6798,0.6858,0.6831,0.6893,0.6895,0.6859,0.6896,0.6896,0.6938,0.6944,0.6959,0.6996,0.7,0.6992,0.6994,0.6995,0.6996,0,0,0,0,0,0,0,0.6697,0.6706,0.6791,0.6791,0.6796,0.6807,0.6817,0.6843,0.6895,0.6862,0.6866,0.6875,0.694,0.6956,0.6961,0.7001,0.6992,0.6994,0.6996,0.6997,0.7047,0.7047,0,0,0,0,0,0,0.6687,0.6702,0.6789,0.6794,0.675,0.6809,0.682,0.6839,0.6895,0.6904,0.6875,0.6877,0.6951,0.6957,0.6964,0.6977,0.6995,0.6998,0.6999,0.7048,0.7047,0.7047,0,0,0,0,0,0,0.6684,0.6694,0.6785,0.6749,0.6761,0.6811,0.6831,0.684,0.6855,0.6904,0.6913,0.6881,0.6951,0.696,0.6984,0.6981,0.6999,0.7001,0.7048,0.7047,0.7047,0.7005,0,0,0,0,0,0,0.668,0.6693,0.6698,0.6749,0.6763,0.6805,0.6831,0.6841,0.686,0.6865,0.6913,0.6921,0.6952,0.698,0.6987,0.6985,0.7004,0.7049,0.7048,0.7047,0.7007,0.7003,0.6999,0,0,0,0,0,0.6676,0.6683,0.6698,0.6708,0.6771,0.6805,0.6813,0.6849,0.686,0.6865,0.6896,0.692,0.698,0.6982,0.6991,0.699,0.7049,0.7048,0.7047,0.7008,0.7003,0.6999,0,0,0,0,0,0,0.6631,0.669,0.6708,0.6731,0.6763,0.6814,0.6821,0.6844,0.6872,0.6875,0.6918,0.6928,0.6947,0.6971,0.6972,0.7,0.7017,0.7018,0.6984,0.698,0.6977,0.6971,0.7006,0,0,0,0,0,0.6623,0.6647,0.6698,0.6713,0.6728,0.6772,0.6788,0.6813,0.6847,0.686,0.6893,0.6925,0.695,0.6967,0.6993,0.701,0.702,0.7013,0.701,0.7006,0.7007,0.7015,0.7012,0.7044,0.7044,0.7044,0,0,0.6608,0.6644,0.6657,0.6705,0.6732,0.6755,0.6783,0.6806,0.6822,0.6864,0.6889,0.6913,0.6951,0.6971,0.6981,0.6991,0.7,0.7005,0.7002,0.7004,0.7014,0.701,0.7008,0.7043,0.7043,0.7043,0,0,0.6593,0.6623,0.6638,0.6665,0.6705,0.6734,0.6737,0.6785,0.6803,0.6828,0.6859,0.6879,0.6923,0.6948,0.6966,0.6957,0.6979,0.6964,0.6945,0.6953,0.695,0.6948,0.6943,0.6941,0.6964,0.6964,0.6964,0,0.6569,0.6605,0.6643,0.6664,0.6684,0.6722,0.6737,0.676,0.6807,0.6819,0.6829,0.6884,0.6912,0.6937,0.6935,0.6949,0.6953,0.6959,0.6948,0.6946,0.6945,0.694,0.6939,0.6962,0.6962,0.6962,0.6962,0,0.6573,0.6597,0.6605,0.6649,0.6669,0.6687,0.6726,0.6742,0.6764,0.6791,0.6815,0.685,0.6883,0.6891,0.6913,0.6918,0.6923,0.694,0.6957,0.6939,0.6935,0.6934,0.6959,0.6959,0.696,0.696,0,0,0.6533,0.6597,0.6599,0.6618,0.6665,0.6683,0.6701,0.6734,0.6746,0.6776,0.6792,0.6827,0.6842,0.6862,0.6887,0.6894,0.6882,0.691,0.6911,0.6903,0.6888,0.6875,0.6872,0.6897,0.6897,0.6897,0.6884,0,0.6524,0.656,0.6593,0.6616,0.6638,0.6673,0.6688,0.6718,0.6742,0.6763,0.679,0.6814,0.6833,0.6845,0.6853,0.6882,0.688,0.6883,0.691,0.6911,0.69,0.6871,0.6858,0.6845,0.6884,0.6883,0.6883,0,0.6519,0.6547,0.6572,0.6614,0.6624,0.6638,0.6669,0.6689,0.6722,0.6739,0.6761,0.6787,0.6805,0.682,0.6846,0.6848,0.686,0.6876,0.6876,0.688,0.6896,0.6873,0.6842,0.6839,0.6882,0.6882,0.6882,0,0.6485,0.653,0.655,0.6566,0.6616,0.6624,0.6645,0.6678,0.6695,0.6722,0.6732,0.6761,0.6776,0.6797,0.6829,0.6837,0.685,0.6869,0.6864,0.6863,0.6866,0.6865,0.6835,0.6874,0.6874,0.6874,0.6874,0,0.6472,0.6485,0.6535,0.6548,0.6563,0.6601,0.6614,0.6638,0.6667,0.6683,0.6715,0.673,0.6771,0.679,0.6815,0.6831,0.6838,0.6852,0.6858,0.6849,0.6847,0.6858,0.6859,0.6874,0.6874,0.6874,0.6874,0,0.6438,0.6472,0.6496,0.6541,0.6552,0.6561,0.6599,0.6611,0.6637,0.6657,0.6663,0.6703,0.6727,0.6761,0.6795,0.6811,0.6823,0.6834,0.6812,0.6816,0.6809,0.6809,0.6785,0.6783,0.6824,0.6823,0.6823,0,0.6427,0.6438,0.6483,0.6496,0.6516,0.6537,0.6554,0.659,0.6606,0.6643,0.665,0.6676,0.6699,0.6734,0.6765,0.6791,0.6802,0.6791,0.6806,0.6795,0.68,0.6799,0.6799,0.6788,0.6787,0.6787,0.6786,0,0.6403,0.6418,0.6442,0.647,0.6489,0.6513,0.6539,0.6548,0.6589,0.6605,0.6629,0.6646,0.668,0.6705,0.6734,0.6754,0.6776,0.6781,0.6781,0.6772,0.6758,0.6764,0.6802,0.6782,0.6782,0.6783,0.6783,0.6783,0.638,0.639,0.6423,0.6447,0.647,0.6492,0.6505,0.6532,0.6553,0.6584,0.6603,0.6626,0.6656,0.6697,0.6716,0.6733,0.6742,0.6743,0.6743,0.6742,0.6738,0.6756,0.6738,0.6739,0.6739,0.6739,0.6739,0,0.6356,0.6379,0.64,0.6435,0.6453,0.6472,0.6501,0.6514,0.6534,0.656,0.6581,0.6608,0.6631,0.6663,0.6688,0.6696,0.6706,0.6701,0.6701,0.6705,0.6729,0.6726,0.6692,0.6692,0.6692,0.6692,0.6692,0.6692,0.6347,0.6365,0.6384,0.6413,0.6435,0.6458,0.6472,0.6492,0.6513,0.6541,0.6561,0.6582,0.6609,0.6636,0.6658,0.6667,0.6674,0.6665,0.6677,0.6699,0.6703,0.6707,0.6705,0.6667,0.6667,0.6651,0.6651,0.6651]}]]